GPS III SV03

operational
NORAD ID: 45854 Int'l Des: 2020-041 Owner: SMC Country: US Constellation: GPS
MEOCIRCULARGNSS

GPS III SV03について

説明を読み込み中...

リアルタイム位置

3D地球を読み込み中...

次回通過

高度履歴

Altitude vs Time

uPlot chart will show altitude changes over time

軌道要素

1 45854U 20041A 25296.39836279 -.00000080 00000-0 00000-0 0 9993
2 45854 56.5118 38.1464 0059145 201.3505 154.5626 2.00563261 39286
Epoch: Oct 23, 2025 • Age: 62 hours

現在のステータス

高度 20282.9 km
速度 3.86 km/s
衛星直下点 53.66°N, 66.75°E
打ち上げ日 Jun 30, 2020
運用期間 5.3 years
タイプ navigation

技術仕様

分類 Payload
質量 4400.00 kg
乾燥質量 2160.00 kg
総質量 4400.00 kg
長さ 3.40 m
直径 1.80 m
スパン 14.00 m
形状 Box + 2 pan
製造者 LMSSD
バスタイプ A2100
フェーズステータス In Orbit
所有者/国 SMC/US

大規模コンステレーション

Loading constellations...